STARLINK-1655 (47623 NORAD) Tracking and Keplerian Element Data

This shows tracking and keplerian element data for the satellite.

Feedback or suggestion? Click here.




ElementValue
Catalog47623
NameSTARLINK-1655
Epoch Orbit1007
Epoch Day106.16668981
Epoch Year2021
RAAN167.8157
Inclination53.0456
Eccentricity0.0002264
Argument of Perigee28.6555
Mean Anonmoly5.792
Mean Motion15.73207734
Decay Rate0.00044711
L11 47623U 21012D 21106.16668981 .00044711 00000-0 32111-3 0 9991
L22 47623 53.0456 167.8157 0002264 28.6555 5.7920 15.73207734 10077

Live tracking and technical data element details for STARLINK-1655 (NORAD 47623). STARLINK-1655 can be tracked NOW for your location showing map with azimuth and elevation plus other details from your city location.

Track the satellite on the map from your city or location and see movement details for azimuth, elevation, latitude, longitude, range, height, and movement on the map or in text.







IsCatalogInMostPopularTable: catalog: 47623, numindb: 17
Update: records affected: 1



GetName: 47623 STARLINK-1655

Hit Count: updated at: Fri, 16 Apr 2021 10:14:06 GMT